Regional Weather Roundup
Issued by NWS New Orleans/Baton Rouge, LA

Current Version | Previous Version | Text Only | Print | Product List | Glossary On
Versions: 1 2 3 4 5 6 7 8 9 10 11 12 13 14 15 16 17 18 19 20 21 22 23 24 25 26 27 28 29 30 31 32 33 34 35 36 37 38 39 40 41 42 43 44 45 46 47 48 49 50
000
ASUS44 KLIX 231911
RWRLIX
NEW ORLEANS REGIONAL WEATHER ROUNDUP
NATIONAL WEATHER SERVICE NEW ORLEANS LA
200 PM CDT SAT JUL 23 2016

NOTE: "FAIR" INDICATES FEW OR NO CLOUDS BELOW 12,000 FEET WITH NO
      SIGNIFICANT WEATHER AND/OR OBSTRUCTIONS TO VISIBILITY.
      SKY/WX - SKY CONDITION AND SIGNIFICANT WEATHER.
      TMP - AIR TEMPERATURE.     DP    - DEWPOINT TEMPERATURE.
      RH  - RELATIVE HUMIDITY.   PRES  - PRESSURE.
      HI  - HEAT INDEX.          WCI   - WIND CHILL INDEX.

*  THESE STATIONS ARE NOT NWS OR FAA STATIONS AND ARE NOT UNDER
   NWS QUALITY CONTROL.

LAZ038-040-048-061>063-065>067-069-232000-
SOUTHEAST LOUISIANA

CITY           SKY/WX    TMP DP  RH WIND       PRES   REMARKS
N.O. AUDUBON     N/A     93 N/A N/A MISG        N/A
N.O. INTL ARPT PTSUNNY   92  75  57 CALM      29.99F HX 103
N.O. LAKEFRONT MOSUNNY   91  76  61 N6        30.00F HX 103
N.O. DOWNTOWN* NOT AVBL
RESERVE*         N/A     93  75  54 CALM      29.99F HX 104
SLIDELL        MOSUNNY   91  77  63 SW5       29.98F HX 104
BATON ROUGE    PTSUNNY   93  74  53 W8        29.99F HX 103
BOOTHVILLE     LGT RAIN  86  75  69 SW6       30.01S HX  95
BELLE CHASSE   CLOUDY    82  74  76 SE8       30.00F THUNDER
BOGALUSA*        N/A     92  74  54 N5        30.00F HX 102
GALLIANO*      CLOUDY    81  77  86 SW7       30.01S
NEW ROADS*       N/A     91  76  62 NW5       29.99S THUNDER HX 102
GONZALES*        N/A     92  75  57 W3        29.98S HX 103
HAMMOND*       MOSUNNY   95  72  46 W5        29.98F HX 103
HOUMA*         NOT AVBL
PORT FOURCHON* MOCLDY    86  73  66 W8        30.01S

$$

MSZ070-080>082-232000-
SOUTHERN MISSISSIPPI

CITY           SKY/WX    TMP DP  RH WIND       PRES   REMARKS
MCCOMB         MOSUNNY   89  75  63 CALM      30.00F HX  99
GULFPORT       MOSUNNY   90  74  59 S9        29.99F HX  99
BILOXI         MOSUNNY   89  75  62 S7        30.00S HX  99
PASCAGOULA     PTSUNNY   91  76  61 VRB3      30.00F HX 103
STENNIS ARPT*  PTSUNNY   88  72  58 S7        29.99F

$$

COASTAL OBSERVATIONS
LAKE AND NEARSHORE STATIONS

STATION/POSITION TIME  TEMP    WIND        PRES    WAVE
                       AIR SEA DIR/SP/G            HT/PER
                 (UTC) (F)     (DEG/KT/KT) (MB)    (FT/S)
PASCAGOULA       1800   87     160/  6/  7 1015.9
WAVELAND YACHT   1800   85 87  150/  7/  9 1016.0
GRAND ISLE       1800   86 89  270/  5/  6 1016.5
SOUTHWEST PASS   1800          270/  6/  8   N/A
NEW CANAL        1800   87 88  360/  4/  5 1015.4
SHELL BEACH      1800   86 89   70/  6/  9 1016.3

OFFSHORE STATIONS

STATION/POSITION TIME  TEMP    WIND        PRES    WAVE
                       AIR SEA DIR/SP/G            HT/PER
                 (UTC) (F)     (DEG/KT/KT) (MB)    (FT/S)
64 S DAUPHIN ISL 1800   84 89  210/  2/  6 1016.1

$$




USA.gov is the U.S. government's official web portal to all federal, state and local government web resources and services.